Location: Aix-en-Ergny
(50.5839°N, 1.9996°E)
Time: 11:28:37
(UTC+00:00)

Cosmos 2360 Rocket - Pass Details

Date: 23 October 2019
Orbit: 832 x 846 km, 71.0° (Epoch: 11 November)

Event Time Altitude Azimuth Distance (km) Brightness Sun altitude
Exits shadow 04:23:07 16° 322° (NW) 2,084 3.9 -20.3°
Maximum altitude 04:23:45 16° 330° (NNW) 2,070 4.0 -20.2°
Drops below altitude 10° 04:27:11 10° 8° (N) 2,473 4.8 -19.7°
Sets 04:30:41 0° 30° (NNE) 3,414 5.9 -19.1°
